Météo par heure à Alindao

Ce jour, 29 Octobre, Jeudi

Heure Température Précipitation Vent Pression Humidité
00:00 +22°C° 0.1 mm 0 m/s 718 mmHg 94%
01:00 +24°C° 0 mm 1 m/s 718 mmHg 95%
02:00 +22°C° 1.9 mm 0 m/s 718 mmHg 96%
03:00 +21°C° 1.9 mm 0 m/s 718 mmHg 96%
04:00 +21°C° 1.9 mm 0 m/s 718 mmHg 97%
05:00 +24°C° 1.9 mm 1 m/s 718 mmHg 97%
06:00 +24°C° 1.9 mm 1 m/s 719 mmHg 97%
07:00 +25°C° 0 mm 2 m/s 720 mmHg 97%
08:00 +25°C° 0.3 mm 2 m/s 720 mmHg 95%
09:00 +26°C° 0.3 mm 2 m/s 720 mmHg 93%
10:00 +27°C° 0.3 mm 3 m/s 720 mmHg 91%
11:00 +27°C° 0.4 mm 3 m/s 720 mmHg 90%
12:00 +27°C° 0.4 mm 3 m/s 719 mmHg 90%
13:00 +27°C° 0 mm 3 m/s 719 mmHg 88%
14:00 +27°C° 0.3 mm 3 m/s 719 mmHg 89%
15:00 +27°C° 0.3 mm 3 m/s 719 mmHg 90%
16:00 +26°C° 0.3 mm 3 m/s 718 mmHg 90%
17:00 +25°C° 0 mm 2 m/s 719 mmHg 93%
18:00 +24°C° 0 mm 2 m/s 719 mmHg 95%
19:00 +23°C° 0 mm 1 m/s 720 mmHg 98%
20:00 +23°C° 0 mm 1 m/s 720 mmHg 97%
21:00 +23°C° 0 mm 1 m/s 720 mmHg 97%
22:00 +23°C° 0 mm 1 m/s 720 mmHg 97%
23:00 +23°C° 0 mm 1 m/s 720 mmHg 97%

Demain, 30 Octobre, Vendredi

Heure Température Précipitation Vent Pression Humidité
00:00 +23°C° 0 mm 1 m/s 720 mmHg 97%
01:00 +21°C° 0 mm 0 m/s 719 mmHg 97%
02:00 +21°C° 0.1 mm 0 m/s 719 mmHg 97%
03:00 +21°C° 0.1 mm 0 m/s 719 mmHg 97%
04:00 +21°C° 0.1 mm 0 m/s 719 mmHg 97%
05:00 +23°C° 0.4 mm 1 m/s 720 mmHg 97%
06:00 +23°C° 0.4 mm 1 m/s 720 mmHg 96%
07:00 +23°C° 0.4 mm 1 m/s 721 mmHg 96%
08:00 +25°C° 0.1 mm 1 m/s 721 mmHg 93%
09:00 +26°C° 0.1 mm 1 m/s 721 mmHg 89%
10:00 +27°C° 0.1 mm 1 m/s 721 mmHg 86%
11:00 +27°C° 0.4 mm 1 m/s 720 mmHg 84%
12:00 +28°C° 0.4 mm 1 m/s 719 mmHg 83%
13:00 +28°C° 0.4 mm 1 m/s 718 mmHg 82%
14:00 +28°C° 0.2 mm 1 m/s 718 mmHg 83%
15:00 +28°C° 0.2 mm 1 m/s 718 mmHg 84%
16:00 +28°C° 0.2 mm 1 m/s 717 mmHg 86%
17:00 +26°C° 0.1 mm 1 m/s 718 mmHg 89%
18:00 +23°C° 0.1 mm 0 m/s 718 mmHg 91%
19:00 +22°C° 0.1 mm 0 m/s 719 mmHg 94%
20:00 +22°C° 0.1 mm 0 m/s 719 mmHg 94%
21:00 +22°C° 0.1 mm 0 m/s 719 mmHg 94%
22:00 +24°C° 0.1 mm 1 m/s 720 mmHg 94%
23:00 +23°C° 0.1 mm 1 m/s 719 mmHg 94%

Après-demain, 31 Octobre, Samedi

Heure Température Précipitation Vent Pression Humidité
00:00 +23°C° 0.1 mm 1 m/s 719 mmHg 95%
01:00 +21°C° 0.1 mm 0 m/s 719 mmHg 96%
02:00 +21°C° 0 mm 0 m/s 719 mmHg 96%
03:00 +21°C° 0 mm 0 m/s 719 mmHg 96%
04:00 +20°C° 0 mm 0 m/s 719 mmHg 97%
05:00 +21°C° 0.1 mm 0 m/s 719 mmHg 95%
06:00 +22°C° 0.1 mm 0 m/s 720 mmHg 94%
07:00 +25°C° 0.1 mm 1 m/s 721 mmHg 93%
08:00 +26°C° 0.4 mm 1 m/s 721 mmHg 89%
09:00 +27°C° 0.4 mm 1 m/s 720 mmHg 85%
10:00 +28°C° 0.4 mm 1 m/s 720 mmHg 82%
11:00 +29°C° 1 mm 1 m/s 719 mmHg 79%
12:00 +30°C° 1 mm 1 m/s 719 mmHg 76%
13:00 +30°C° 1 mm 1 m/s 718 mmHg 74%
14:00 +30°C° 0.4 mm 1 m/s 717 mmHg 77%
15:00 +29°C° 0.4 mm 1 m/s 717 mmHg 81%
16:00 +29°C° 0.4 mm 1 m/s 717 mmHg 85%
17:00 +27°C° 0.4 mm 1 m/s 717 mmHg 87%
18:00 +26°C° 0.4 mm 1 m/s 718 mmHg 90%
19:00 +25°C° 0.4 mm 1 m/s 718 mmHg 93%
20:00 +22°C° 0.5 mm 0 m/s 718 mmHg 93%
21:00 +22°C° 0.5 mm 0 m/s 719 mmHg 93%
22:00 +22°C° 0.5 mm 0 m/s 719 mmHg 93%
23:00 +22°C° 0.4 mm 0 m/s 719 mmHg 93%

1 Novembre, Dimanche

Heure Température Précipitation Vent Pression Humidité
00:00 +22°C° 0.4 mm 0 m/s 718 mmHg 93%
01:00 +22°C° 0.4 mm 0 m/s 718 mmHg 94%
02:00 +22°C° 1.1 mm 0 m/s 718 mmHg 95%
03:00 +21°C° 1.1 mm 0 m/s 718 mmHg 96%
04:00 +21°C° 1.1 mm 0 m/s 718 mmHg 96%
05:00 +22°C° 0 mm 0 m/s 719 mmHg 96%
06:00 +22°C° 0 mm 0 m/s 719 mmHg 95%
07:00 +23°C° 0 mm 0 m/s 720 mmHg 94%
08:00 +23°C° 0 mm 0 m/s 720 mmHg 93%
09:00 +24°C° 0 mm 0 m/s 720 mmHg 91%
10:00 +25°C° 0 mm 0 m/s 720 mmHg 90%
11:00 +26°C° 0.3 mm 0 m/s 719 mmHg 85%
12:00 +27°C° 0.3 mm 0 m/s 718 mmHg 80%
13:00 +31°C° 0.3 mm 1 m/s 717 mmHg 74%
14:00 +30°C° 1.4 mm 1 m/s 717 mmHg 79%
15:00 +27°C° 1.4 mm 0 m/s 717 mmHg 83%
16:00 +27°C° 1.4 mm 0 m/s 716 mmHg 87%
17:00 +25°C° 0.3 mm 0 m/s 717 mmHg 88%
18:00 +24°C° 0.3 mm 0 m/s 717 mmHg 89%
19:00 +23°C° 0.3 mm 0 m/s 718 mmHg 89%
20:00 +22°C° 0.7 mm 0 m/s 718 mmHg 90%
21:00 +22°C° 0.7 mm 0 m/s 718 mmHg 91%
22:00 +22°C° 0.7 mm 0 m/s 718 mmHg 92%
23:00 +22°C° 0.5 mm 0 m/s 718 mmHg 93%

2 Novembre, Lundi

Heure Température Précipitation Vent Pression Humidité
00:00 +22°C° 0.5 mm 0 m/s 718 mmHg 93%
01:00 +22°C° 0.5 mm 0 m/s 718 mmHg 93%
02:00 +22°C° 0.3 mm 0 m/s 718 mmHg 93%
03:00 +22°C° 0.3 mm 0 m/s 718 mmHg 94%
04:00 +22°C° 0.3 mm 0 m/s 718 mmHg 94%
05:00 +22°C° 0 mm 0 m/s 719 mmHg 94%
06:00 +22°C° 0 mm 0 m/s 719 mmHg 94%
07:00 +23°C° 0 mm 0 m/s 720 mmHg 93%
08:00 +24°C° 0.1 mm 0 m/s 720 mmHg 90%
09:00 +25°C° 0.1 mm 0 m/s 720 mmHg 87%
10:00 +27°C° 0.1 mm 0 m/s 720 mmHg 83%
11:00 +29°C° 0.9 mm 1 m/s 719 mmHg 80%
12:00 +30°C° 0.9 mm 1 m/s 719 mmHg 76%
13:00 +31°C° 0.9 mm 2 m/s 718 mmHg 72%
14:00 +30°C° 1.8 mm 1 m/s 718 mmHg 78%
15:00 +29°C° 1.8 mm 1 m/s 718 mmHg 84%
16:00 +28°C° 1.8 mm 1 m/s 718 mmHg 90%
17:00 +27°C° 0.7 mm 1 m/s 718 mmHg 91%
18:00 +26°C° 0.7 mm 1 m/s 718 mmHg 91%
19:00 +25°C° 0.7 mm 1 m/s 719 mmHg 91%
20:00 +24°C° 0 mm 1 m/s 719 mmHg 92%
21:00 +24°C° 0 mm 1 m/s 720 mmHg 92%
22:00 +24°C° 0 mm 1 m/s 720 mmHg 93%
23:00 +22°C° 0 mm 0 m/s 720 mmHg 93%

3 Novembre, Mardi

Heure Température Précipitation Vent Pression Humidité
00:00 +22°C° 0 mm 0 m/s 719 mmHg 93%
01:00 +22°C° 0 mm 0 m/s 719 mmHg 93%
02:00 +22°C° 0 mm 0 m/s 719 mmHg 94%
03:00 +21°C° 0 mm 0 m/s 719 mmHg 95%
04:00 +21°C° 0 mm 0 m/s 719 mmHg 96%
05:00 +22°C° 0 mm 0 m/s 719 mmHg 94%
06:00 +23°C° 0 mm 0 m/s 720 mmHg 93%
07:00 +23°C° 0 mm 0 m/s 720 mmHg 92%
08:00 +26°C° 0 mm 0 m/s 720 mmHg 85%
09:00 +28°C° 0 mm 0 m/s 721 mmHg 78%
10:00 +30°C° 0 mm 0 m/s 721 mmHg 72%
11:00 +29°C° 0.5 mm 0 m/s 720 mmHg 72%
12:00 +31°C° 0.5 mm 1 m/s 719 mmHg 72%
13:00 +31°C° 0.5 mm 1 m/s 718 mmHg 72%
14:00 +30°C° 1.4 mm 1 m/s 718 mmHg 77%
15:00 +30°C° 1.4 mm 1 m/s 717 mmHg 82%
16:00 +29°C° 1.4 mm 1 m/s 717 mmHg 88%
17:00 +28°C° 0.2 mm 1 m/s 717 mmHg 88%
18:00 +26°C° 0.2 mm 1 m/s 718 mmHg 89%
19:00 +25°C° 0.2 mm 1 m/s 718 mmHg 89%
20:00 +25°C° 0 mm 1 m/s 719 mmHg 90%
21:00 +22°C° 0 mm 0 m/s 719 mmHg 91%
22:00 +22°C° 0 mm 0 m/s 720 mmHg 92%
23:00 +22°C° 0 mm 0 m/s 719 mmHg 92%
Voir plus

Nous avons besoin de votre consentement

Meteoprog et ses fournisseurs de services peuvent stocker et accéder à des données personnelles telles que des cookies, des identifiants d'appareils ou d'autres technologies similaires sur votre appareil et traiter ces données pour personnaliser le contenu et les publicités, ainsi que pour fournir des fonctionnalités de médias sociaux et analyser le trafic.

  • Stocker et/ou accéder à des informations sur votre appareil

    Des cookies, des identifiants d'appareils ou d'autres informations peuvent être stockés ou accessibles sur votre appareil aux fins indiquées ci-dessus.

  • Annonces et contenus personnalisés, mesure des annonces et des contenus, connaissance de l'audience et développement de produits

    Les annonces et le contenu peuvent être personnalisés en fonction d'un profil. D'autres données peuvent être ajoutées pour mieux personnaliser les annonces et le contenu. Les performances des publicités et du contenu peuvent être mesurées. Il est possible d'obtenir des informations sur le public qui a vu les publicités et le contenu. Ces données peuvent être utilisées pour développer ou améliorer l'expérience de l'utilisateur, les systèmes et les logiciels.

En cliquant sur "J'accepte", vous autorisez l'utilisation de cookies, des identifiants d'appareils, des balises web ou d'autres technologies similaires. Vos paramètres peuvent être modifiés dans le navigateur de votre appareil.

Dans certains cas, des intérêts légitimes peuvent être invoqués plutôt qu'un consentement. Vous pouvez en savoir plus à ce sujet dans notre Politique de confidentialité et de cookies.